TimeCST,TemperatureF,Dew PointF,Humidity,Sea Level PressureIn,VisibilityMPH,Wind Direction,Wind SpeedMPH,Gust SpeedMPH,PrecipitationIn,Events,Conditions,WindDirDegrees,DateUTC
12:03 AM,60.8,55.4,82,30.02,10.0,Variable,3.5,-,N/A,,Scattered Clouds,0,2012-12-07 06:03:00
12:25 AM,60.8,55.4,82,30.01,10.0,Calm,Calm,-,N/A,,Mostly Cloudy,0,2012-12-07 06:25:00
12:53 AM,61.0,57.0,87,30.01,10.0,Calm,Calm,-,N/A,,Overcast,0,2012-12-07 06:53:00
1:40 AM,60.8,57.2,88,30.01,10.0,East,3.5,-,N/A,,Scattered Clouds,90,2012-12-07 07:40:00
1:53 AM,60.1,57.0,90,30.00,10.0,East,3.5,-,N/A,,Mostly Cloudy,90,2012-12-07 07:53:00
2:53 AM,60.1,57.0,90,29.99,10.0,Calm,Calm,-,N/A,,Overcast,0,2012-12-07 08:53:00
3:40 AM,59.0,55.4,88,30.00,8.0,Calm,Calm,-,N/A,,Mostly Cloudy,0,2012-12-07 09:40:00
3:53 AM,60.1,55.9,86,29.99,8.0,NE,3.5,-,N/A,,Overcast,50,2012-12-07 09:53:00
4:53 AM,61.0,57.0,87,30.00,9.0,ENE,3.5,-,N/A,,Overcast,70,2012-12-07 10:53:00
5:53 AM,61.0,57.0,87,30.01,9.0,Variable,4.6,-,N/A,,Overcast,0,2012-12-07 11:53:00
6:53 AM,61.0,55.9,83,30.03,8.0,Variable,3.5,-,N/A,,Overcast,0,2012-12-07 12:53:00
7:53 AM,61.0,55.9,83,30.04,9.0,Variable,3.5,-,N/A,,Overcast,0,2012-12-07 13:53:00
8:53 AM,60.1,55.0,83,30.06,10.0,ESE,5.8,-,N/A,,Overcast,110,2012-12-07 14:53:00
9:53 AM,61.0,55.0,81,30.05,10.0,Variable,4.6,-,N/A,,Overcast,0,2012-12-07 15:53:00
10:53 AM,62.1,55.0,78,30.03,10.0,ENE,5.8,-,N/A,,Overcast,70,2012-12-07 16:53:00
11:53 AM,62.1,55.9,80,30.00,10.0,Calm,Calm,-,N/A,,Overcast,0,2012-12-07 17:53:00
12:53 PM,62.1,55.9,80,29.99,10.0,Calm,Calm,-,N/A,,Overcast,0,2012-12-07 18:53:00
1:53 PM,63.0,55.9,78,29.97,10.0,Calm,Calm,-,N/A,,Overcast,0,2012-12-07 19:53:00
2:53 PM,63.0,57.0,81,29.96,9.0,South,4.6,-,N/A,,Overcast,170,2012-12-07 20:53:00
3:53 PM,63.0,57.0,81,29.97,9.0,Calm,Calm,-,N/A,,Overcast,0,2012-12-07 21:53:00
4:53 PM,63.0,57.0,81,29.97,10.0,Calm,Calm,-,N/A,,Overcast,0,2012-12-07 22:53:00
5:53 PM,62.1,57.0,84,29.98,9.0,Calm,Calm,-,N/A,,Overcast,0,2012-12-07 23:53:00
6:53 PM,62.1,57.0,84,29.98,10.0,Calm,Calm,-,N/A,,Overcast,0,2012-12-08 00:53:00
7:53 PM,60.1,57.0,90,29.99,9.0,Calm,Calm,-,N/A,,Mostly Cloudy,0,2012-12-08 01:53:00
8:01 PM,60.8,57.2,88,29.99,8.0,Calm,Calm,-,N/A,,Scattered Clouds,0,2012-12-08 02:01:00
8:53 PM,57.0,55.0,93,29.99,4.0,Calm,Calm,-,N/A,,Clear,0,2012-12-08 02:53:00
9:53 PM,55.9,54.0,93,30.00,4.0,Calm,Calm,-,N/A,,Clear,0,2012-12-08 03:53:00
10:53 PM,55.9,54.0,93,30.00,5.0,Calm,Calm,-,N/A,,Overcast,0,2012-12-08 04:53:00
11:53 PM,57.0,55.0,93,30.00,6.0,Calm,Calm,-,N/A,,Overcast,0,2012-12-08 05:53:00